Погода в Сорочинске

Погода в Сорочинске : погода сейчас, прогноз погоды и архив. Всё, что Вы хотите узнать о погоде в Сорочинске!

Хотите узнать прогноз погоды в Сорочинске? Тогда Вам сюда: Погода в Сорочинске

Поиск расширенной информации на нашем сайте:

Полезная информация: Декоративный камень владивосток смотрите на www.foxystone.ru.

Другие новости

Новости СМИ2

Главная страница сайта

Новости сайта

02.10.2013

Напоминаем, что на нашем новом сайте вы можете получить высокодетализированные прогнозы погоды по пунктам России, СНГ и мира (включающие важные для авиации метеовеличины, такие как направление и скорость ветра, видимость, явления погоды, количество и форма облачности, нижняя и верхняя граница облачности), а также ознакомиться с разнообразными материалами по авиационной метеорологии и подборкой полезных ссылок на эту тему.

Сайт Метеоцентр.Азия посвящён разработке технологий оптимизации авиаметеорологического обслуживания, включая проектирование и перспективное создание нескольких автоматизированных авиаметеорологических систем:
- система выпуска высокодетальных прогностических карт явлений погоды для нижнего воздушного пространства по России и ближнему зарубежью;
- система верификации прогнозов TAF (выпускаемых синоптиками официальных АМСГ РФ и ближнего зарубежья) и AUTOTAF (выпускаемых сайтом Метеоцентр.Азия) - выявление ошибок, онлайн-сопоставление с фактической погодой METAR, автоматическое внесение коррективов в прогнозы при резком отклонении фактической погоды от прогноза, подсчёт оправдываемости прогнозов по элементам и в целом;
- система обработки, анализа и отображения авиаметеорологической информации для применения провайдерами метеорологической информации.

Рекомендуем: шины и диски подбор по марке авто

Погода в Сорочинске - сегодня

Время (UTC), дата Ветер
(°,м/с) 
Видим.   Явления Облачность Т
(°С)
Тd
(°С)
f(%) Тe
(°С)
Pmin
(гПа)
dP
(гПа)
Po
(мм)
O2
(г/м3)
Тmin Tmax R s Состояние
почвы
00 21.01.17 250 (З) 5{10}  20000 м  {снег}  10/10 840 м 
[Ns]
-6.5 -8.8 84 -11  1007.2  0.7  743  308           
03 21.01.17 250 (З) 20000 м    10/10 800 м 
[Ns]
-7.5 -9.5 86 -12  1006.9  -0.4  743  309  -9.1    0.3  21  равномерный
сухой снег
100% 
06 21.01.17 240 (ЮЗ) 20000 м    10/0 средняя 
[Ac As]
-7 -8.7 88 -11  1007.5  0.6  744  308           
09 21.01.17 240 (ЮЗ) 5{11}  20000 м  позёмок  10/6 1000 м средняя, верхняя 
[Sc|Ac trans|Ci fib]
-8.1 -10.9 80 -12  1007.1  -0.5  743  310           
12 21.01.17 240 (ЮЗ) 5{10}  20000 м  позёмок  10/3 1000 м средняя, верхняя 
[Sc|Ac trans|Ci fib]
-8.1 -10.5 83 -12  1006.1  -1  743  309           
15 21.01.17 230 (ЮЗ) 4{10}  20000 м  позёмок  10/0 средняя 
[Ac und]
-9.2 -11.5 83 -13  1005.3  -0.8  742  310    -6.9       
18 21.01.17 230 (ЮЗ) 20000 м    10/0 средняя 
[Ac und]
-9.2 -11 87 -13  1004.1  -1.2  741  310           
21 21.01.17 270 (З) 10 км  слаб. снег  10/0 средняя 
[As op]
-7.2 -8.9 88 -11  1003.3  -0.7  741  307           
00 22.01.17 290 (З) 20000 м  {снег}  6/0 средняя 
[Ac trans]
-11.9 -13.9 85 -14  1004.1  0.5  741  313           
03 22.01.17 270 (З) 20000 м    6/0 верхняя 
[Ci fib]
-14.6 -14.9 98 -17  1005.2  0.9  742  317  -14.8    0.0  21  равномерный
сухой снег
100% 
06 22.01.17 270 (З) 4000 м  дымка [диам. изморози 0 мм]  10/10 180 м 
[Ns]
-12.3 -13.6 90 -14  1005.8  0.8  742  314  -16.4         
09 22.01.17 270 (З) 10 км  слаб. ливневой снег  10/6 600 м кучево-дожд., средняя 
[Cb cap|Ac As]
-9.3 -11.7 83 -14  1005.3  -0.4  742  311           
12 22.01.17 260 (З) 4000 м  слаб. снег{ливн. осадки}  10/0 средняя 
[Ac As]
-8.4 -10.4 85 -13  1005.4  0.2  742  309           
15 22.01.17 270 (З) 4000 м  слаб. снег  10/0 средняя 
[Ac As]
-9.6 -9.6 100 -15  1006.4  0.9  743  311    -8.3  0.4     
18 22.01.17 260 (З) 20000 м  {снег}  10/10 720 м 
[Ns]
-9.6 -11.6 85 -14  1007.3  0.9  743  312           
21 22.01.17 250 (З) 20000 м    10/10 870 м 
[Sc]
-10.6 -12.6 85 -15  1007.5  0.1  743  313           
00 23.01.17 240 (ЮЗ) 10 км  слаб. снег  10/10 750 м 
[Ns]
-10.9 -12.9 85 -14  1008.1  0.6  744  313           
03 23.01.17 270 (З) 20000 м  {снег}  10/10 630 м 
[Ns]
-10.4 -13.2 80 -14  1009.6  1.5  745  313  -10.9    0.2  22  равномерный
сухой снег
100% 
06 23.01.17 280 (З) 10 км  слаб. снег  10/0 средняя 
[Ac As]
-9.7 -12.4 81 -13  1011.5  747  313           
09 23.01.17 270 (З) 10 км  слаб. снег  10/0 средняя 
[Ac As]
-8.5 -11.3 80 -13  1012.8  1.3  748  312           
12 23.01.17 270 (З) 10 км  слаб. снег  10/0 средняя 
[Ac As]
-8.7 -9.6 93 -13  1014.1  1.3  749  312           
15 23.01.17 250 (З) 10 км  слаб. снег  10/0 средняя 
[Ac As]
-9.8 -12.4 81 -13  1015.5  1.2  749  314    -8.3  0.0     
18 23.01.17 230 (ЮЗ) 10 км  слаб. снег  10/10 840 м 
[Ns]
-8.8 -11.2 83 -13  1016  0.6  750  313           
21 23.01.17 220 (ЮЗ) 20000 м  позёмок{снег}  ясно 
-11.9 -14.6 80 -17  1015.8  -0.4  750  317           
00 24.01.17 210 (ЮЗ) 20000 м  позёмок{снег}  10/0 верхняя 
[Ci fib]
-10.8 -12.9 84 -16  1014.9  -0.9  749  315           
Время (UTC), дата Ветер
(°,м/с) 
Видим.   Явления Облачность Т
(°С)
Тd
(°С)
f(%) Тe
(°С)
Pmin
(гПа)
dP
(гПа)
Po
(мм)
O2
(г/м3)
Тmin Tmax R s Состояние
почвы

Для получения пояснительной информации подведите курсор к названию столбца.

ПОГОДА в Сорочинске - архив

Всё, что Вы хотите узнать о погоде в Сорочинске - удобно и подробно!

Выберите нужную дату (начиная с 1 января 2015* года) и нажмите кнопку "Найти".
Будут отображены архивные сводки погоды по пункту Сорочинск, начиная с указанной даты.


Отображать данные в формате CSV (для использования в таблицах Excel)


Внимание! Наш архив погоды предназначен исключительно для личного некоммерческого использования в познавательных целях. Если Вам необходимы официальные справки о состоянии погоды (для производственных, юридических, коммерческих и т.п. целей), обращайтесь в органы Росгидромета.

*Примечание: данная дата относится к архиву по метеостанциям СССР (Россия, СНГ, Балтия).
Архив по метеостанциям Зарубежной Европы и Азии (кроме Китая) хранится 10 дней, по другим регионам земного шара (Китай, Африка, Америка, Австралия, Океания) - 1 день.

Сорочинск - район местоположения метеостанции


Название, широта, долгота, высота метеостанции:
Сорочинск 52.4°ш. 53.1°д. 123 м над ур. моря [Российская Федерация]

Дополнительная информация

В oтличие oт бoльшинства пoгoдных сайтoв мы публикуем пoдрoбную метеoинфoрмацию в детальнoм прoфессиoнальнoм фoрмате.

Характеристики температуры и влажнoсти вoздуха измеряются на высoте 2 м в тени вдали oт зданий и деревьев.
Скoрoсть ветра измеряется на высoте 10 м (на урoвне рoста челoвека скoрoсть ветра ниже в 1.5-2 раза). Если метеoстанция нахoдится в гoрoде или в лесу, тo скoрoсть ветра занижена на 2-4 м/с пo сравнению с oткрытым местoм. Скoрoсть ветра над акватoриями крупных рек и oзёр, а также на вершинах хoлмoв на 2-5 м/с выше, чем в oбычных услoвиях.
Атмoсфернoе давление в разных тoчках местнoсти мoжет значительнo oтличаться oт давления на метеoстанции, в зависимoсти oт услoвий рельефа (при пoдъёме на 10 м давление пoнижается примернo на 1 мм рт.ст.).